Regional Weather Roundup
Issued by NWS

Home | Current Version | Previous Version | Text Only | Print | Product List | Glossary On
Versions: 1 2 3 4 5 6 7 8 9 10 11 12 13 14 15 16 17 18 19 20 21 22 23 24 25 26 27 28 29 30 31 32 33 34 35 36 37 38 39 40 41 42 43 44 45 46 47 48 49 50
000
ASCA42 TJSJ 240510
RWRPR
PUERTO RICO/U.S. VIRGIN ISLANDS HOURLY WEATHER ROUNDUP
NATIONAL WEATHER SERVICE SAN JUAN PR
100 AM AST MON APR 24 2017

PRZ001>002-007>008-010-240600-
PUERTO RICO

CITY           SKY/WX    TMP DP  RH WIND       PRES   REMARKS
SAN JUAN LMM   LGT RAIN  79  75  89 E8        29.96F FOG
PONCE          RAIN      77  75  94 E8        29.99F
AGUADILLA      CLEAR     73  72  94 E5        29.95F
CEIBA          LGT RAIN N/A N/A N/A S6        29.99F
$$

VIZ001>002-240600-
U.S. VIRGIN ISLANDS

CITY           SKY/WX    TMP DP  RH WIND       PRES   REMARKS
CHARLOTTE AMA  CLOUDY    79  73  83 E17       29.95F
CHRISTIANSTED  LGT RAIN  75 N/A N/A E12       29.96F
$$

HOURLY WEATHER ROUNDUP FOR THE NEWS MEDIA

CITY           SKY/WX    TMP DP  RH WIND       PRES   REMARKS
ORLANDO        CLOUDY    73  67  81 S6        29.81F
NEW YORK       MOCLDY    49  47  93 S7        30.15S
NEWARK         MOCLDY    51  42  71 SE3       30.13S
CHICAGO        MOCLDY    44  38  79 NE6       30.05R
HARTFORD       PTCLDY    43  40  89 SW3       30.13R
BOSTON         PTCLDY    47  38  71 SW10      30.10S
DALLAS         PTCLDY    57  45  64 CALM      30.00F
PHILADELPHIA   CLOUDY    51  45  79 CALM      30.13F
LOS ANGELES    PTCLDY    60  51  72 SW6       29.87R
WASHINGTON DC  CLOUDY    53  45  74 E3        30.09F


USA.gov is the U.S. government's official web portal to all federal, state and local government web resources and services.